Back to catalog

CZ-6A DEB

AliveSSO
NORAD 54296·DEBRIS·🇨🇳 China

Launched Nov 11, 2022 from Taiyuan Satellite Launch Center

Loading…

Next Passes (next 24 hours)

TLE

FreshSource: Space-Track

Epoch: Sep 14, 2026, 13:21 UTC

1 54296U 22151AP  26257.55625569  .00001104  00000-0  41626-3 0  9990
2 54296  98.7702 302.7136 0030578 125.9786 234.4240 14.33160538199837

Track CZ-6A DEB in real time with AllMySat

Download on the App Store